Regional Weather Roundup
Issued by NWS

Home | Current Version | Previous Version | Text Only | Print | Product List | Glossary Off
Versions: 1 2 3 4 5 6 7 8 9 10 11 12 13 14 15 16 17 18 19 20 21 22 23 24 25 26 27 28 29 30 31 32 33 34 35 36 37 38 39 40 41 42 43 44 45 46 47 48 49 50

000
ASUS43 KDMX 191807
RWRIA

WEATHER ROUNDUP FOR IOWA
NATIONAL WEATHER SERVICE DES MOINES IA
1200 PM CST FRI DEC 19 2014

NOTE: "FAIR" INDICATES FEW OR NO CLOUDS BELOW 12,000 FEET WITH NO
SIGNIFICANT WEATHER AND/OR OBSTRUCTIONS TO VISIBILITY.

* - THESE STATIONS ARE NOT NWS STATIONS...THUS NOT UNDER NWS
QUALITY CONTROL.  THEY ALSO DO NOT REPORT WEATHER SUCH
AS PRECIPITATION OR FOG.

IAZ001>003-012>014-020>022-031>034-043>046-191900-
   NORTHWEST IOWA

CITY           SKY/WX    TMP DP  RH WIND       PRES   REMARKS
CARROLL *      CLOUDY    32  30  93 S10       30.20F FOG     WCI  24
CHEROKEE *     CLOUDY    32  30  92 S12       30.18F FOG     WCI  23
DENISON *      PTSUNNY   32  32 100 S10       30.18F FOG     WCI  24
LE MARS *      CLOUDY    32  28  86 S16       30.17F WCI  21
ORANGE CITY *  CLOUDY    32  27  80 S15       30.15F WCI  22
SHELDON *      CLOUDY    32  30  93 S13       30.14F FOG     WCI  22
SIOUX CITY     CLOUDY    34  28  79 S15       30.19F WCI  24
6HR MIN TEMP:  31; 6HR MAX TEMP:  34;

SPENCER        CLOUDY    33  28  81 S10       30.17F HAZE    WCI  25
6HR MIN TEMP:  29; 6HR MAX TEMP:  33;

STORM LAKE *   PTSUNNY   32  30  93 S12       30.18F FOG     WCI  23
$$

IAZ055>058-069>071-079>083-090>094-191900-
   SOUTHWEST IOWA

CITY           SKY/WX    TMP DP  RH WIND       PRES   REMARKS
ATLANTIC *     CLOUDY    32  30  93 S10       30.21F FOG     WCI  24
AUDUBON *      SUNNY     32  27  80 S7        30.21F HAZE    WCI  26
CLARINDA *     CLOUDY    32  30  93 S9        30.26F FOG     WCI  24
COUNCIL BLFS * CLOUDY    32  32 100 S10       30.19F FOG     WCI  24
CRESTON *      CLOUDY    30  30 100 S8        30.22F FOG     WCI  23
HARLAN  *      PTSUNNY   32  32 100 S9        30.24F FOG     WCI  24
LAMONI         CLOUDY    31  28  89 S6        30.24F FOG     WCI  25
6HR MIN TEMP:  28; 6HR MAX TEMP:  31; 6HR PCP: TRACE;

RED OAK *      CLOUDY    32  30  93 S9        30.23F FOG     WCI  24
SHENANDOAH *   CLOUDY    32  30  93 S9        30.25F WCI  24
$$

IAZ047>049-059>061-072>074-084-191900-
   CENTRAL IOWA

CITY           SKY/WX    TMP DP  RH WIND       PRES   REMARKS
AMES           CLOUDY    30  26  85 S6        30.25F FOG     WCI  24
6HR MIN TEMP:  26; 6HR MAX TEMP:  30; 6HR PCP: TRACE;

ANKENY *       CLOUDY    30  28  93 SE6       30.25F WCI  24
CHARITON *     CLOUDY    30  28  93 SE6       30.25F WCI  24
DES MOINES     CLOUDY    32  27  81 S8        30.25F WCI  25
6HR MIN TEMP:  29; 6HR MAX TEMP:  32; 6HR PCP: TRACE;

GRINNELL*      CLOUDY    30  25  80 SE7       30.26F WCI  23
KNOXVILLE *    CLOUDY    30  27  86 SE5       30.24F WCI  25
MARSHALLTOWN   CLOUDY    29  24  82 SE8       30.24F WCI  21
6HR MIN TEMP:  25; 6HR MAX TEMP:  29;

PELLA *        CLOUDY    31  27  86 SE5       30.28F FOG     WCI  26
PERRY *        CLOUDY    32  32 100 S7        30.23F FOG     WCI  26
$$

IAZ004>006-015-016-023>025-035-036-191900-
   NORTH CENTRAL IOWA

CITY           SKY/WX    TMP DP  RH WIND       PRES   REMARKS
ALGONA *       CLOUDY    30  30 100 S14       30.20F FOG     WCI  20
CLARION *      CLOUDY    30  30 100 S12       30.22F FOG     WCI  21
ESTHERVILLE    CLOUDY    30  28  92 S14       30.18F FOG     WCI  19
6HR MIN TEMP:  26; 6HR MAX TEMP:  30;

FORT DODGE *   CLOUDY    30  27  86 S8        30.22F WCI  23
MASON CITY     CLOUDY    28  24  85 S9        30.24F WCI  19
6HR MIN TEMP:  24; 6HR MAX TEMP:  28;

FOREST CITY *  CLOUDY    30  27  86 S7        30.21F FOG     WCI  23
IOWA FALLS *   CLOUDY    30  27  86 S7        30.24F WCI  24
$$

IAZ007>011-017>019-026>030-037>042-050>054-066-191900-
   NORTHEAST IOWA

CITY           SKY/WX    TMP DP  RH WIND       PRES   REMARKS
CEDAR RAPIDS   CLOUDY    29  21  72 SE6       30.27F WCI  23
6HR MIN TEMP:  22; 6HR MAX TEMP:  29;

CHARLES CITY * CLOUDY    28  25  86 SE8       30.25F WCI  20
CLINTON *      PTSUNNY   27  21  80 NE6       30.33F WCI  20
DECORAH *      CLOUDY    27  21  80 SE7       30.25F WCI  19
DUBUQUE        CLOUDY    26  19  74 S5        30.28F WCI  20
6HR MIN TEMP:  23; 6HR MAX TEMP:  34;

MONTICELLO *     N/A     27  21  80 SE7       30.28F WCI  19
OELWEIN *      CLOUDY    28  21  74 S7        30.27F WCI  21
WATERLOO       CLOUDY    29  22  75 SE7       30.26F WCI  22
6HR MIN TEMP:  25; 6HR MAX TEMP:  29;

$$

IAZ064-065-067-068-078-191900-
   EAST CENTRAL IOWA

CITY           SKY/WX    TMP DP  RH WIND       PRES   REMARKS
DAVENPORT      CLOUDY    28  20  71 E6        30.30F WCI  22
6HR MIN TEMP:  14; 6HR MAX TEMP:  28;

IOWA CITY      SUNNY     31  21  66 SE7       30.31F WCI  24
6HR MIN TEMP:  20; 6HR MAX TEMP:  31;

MT. PLEASANT * CLOUDY    29  24  79 SE5       30.30F WCI  24
MUSCATINE *    SUNNY     30  19  64 CALM      30.31F
QUAD CITIES    SUNNY     30  19  63 E3        30.30F
6HR MIN TEMP:  15; 6HR MAX TEMP:  31;

$$

IAZ062-063-075>077-085>089-095>099-191900-
   SOUTHEAST IOWA

CITY           SKY/WX    TMP DP  RH WIND       PRES   REMARKS
BURLINGTON     CLOUDY    31  22  69 CALM      30.29F
6HR MIN TEMP:  27; 6HR MAX TEMP:  31;

FAIRFIELD *    CLOUDY    30  23  74 SE6       30.28F WCI  24
FORT MADISON * CLOUDY    30  27  86 CALM      30.29F
KEOKUK *       CLOUDY    30  25  80 E5        30.29F WCI  25
OSKALOOSA *    CLOUDY    29  25  85 SE6       30.27F WCI  23
CENTERVILLE *  PTSUNNY   30  28  93 SE5       30.27F WCI  25
OTTUMWA        CLOUDY    30  24  78 E5        30.27F WCI  25
6HR MIN TEMP:  27; 6HR MAX TEMP:  30;

WASHINGTON *   CLOUDY    30  27  86 SE6       30.28F WCI  24
$$

ABBREVIATIONS USED IN REMARKS
   TC - TEMPERATURES IN CELSIUS
  WCI - WIND CHILL INDEX
   HX - HEAT INDEX
  VSB - VISIBILITY
$$



USA.gov is the U.S. government's official web portal to all federal, state and local government web resources and services.